Tracking 25405 objects as of 27-Jan-2022
HD Live streaming from Space Station
objects crossing your sky now

CZ-4C R/B

Track CZ-4C R/B now!
10-day predictions
CZ-4C R/B is classified as:


NORAD ID: 39211
Int'l Code: 2013-037D
Perigee: 469.5 km
Apogee: 638.5 km
Inclination: 98.0 °
Period: 95.6 minutes
Semi major axis: 6924 km
RCS: Unknown
Launch date: July 19, 2013
Source: People's Republic of China (PRC)
Launch site: Taiyaun Space Center, China (TSC)

Note: This is a ROCKET BODY
aabbcc
Your satellite tracking list
Your tracking list is empty




NASA's NSSDC Master Catalog

Two Line Element Set (TLE):
1 39211U 13037D   22026.45285724  .00001381  00000-0  83579-4 0  9998
2 39211  98.0475 189.9815 0122002  23.9998 336.6848 15.06521253467633
Source of the keplerian elements: AFSPC